Location: Karlsruhe
(49.0039°N, 8.3960°E)
Time: 01:27:38
(UTC+01:00)

ISS - Visible Passes

Search period start: 08 December 2021 00:00
Search period end: 18 December 2021 00:00
Orbit: 417 x 422 km, 51.6° (Epoch: 07 December)

Date Brightness Start Highest point End Pass type
(mag) Time Alt. Az. Time Alt. Az. Time Alt. Az.
08 Dec -0.8 18:04:10 10° W 18:06:33 18° SW 18:08:55 10° S visible
09 Dec -1.3 17:16:26 10° W 17:19:20 26° SW 17:22:13 10° SSE visible
11 Dec -0.2 17:19:39 10° WSW 17:20:56 12° SW 17:22:12 10° SSW visible
